ARIANE 1 DEB, 40780

Orbit data source: Space-Track

ARIANE 1 DEB, 40780 is space debris in HEO originally from a launch on Mon, 24 Dec 1979 UTC launched from the French Guiana (FRGUI). Debris objects in space refer to the collection of defunct objects orbiting the Earth. Examples of debris include non-operational satellites, rocket bodies, and fragments generated from explosions, collisions, or faulty payload assembly.

Loading next visibility...
Identifier
40780, 1979-104AH
Orbit
HEO
Country
Flag of FRFR
Related business
Manufacturer
Unknown
Mission
Spacecraft
Bus & Motor
Unknown
Mass
Unknown
Launch date (UTC)
1979-12-24 (46 years ago)
Launch vehicle
Unknown
Launch site
French Guiana (FRGUI)
Object type
Payload
Rocket body
Debris
Shape & HBR
Unknown shape, 0.1 m
Radar Cross Section
Medium (>0.1 m² and <1 m²)

Expand to show TLE details & history
Last TLE update: 4 days ago

TLE from 4 days ago
0 ARIANE 1 DEB
1 40780U 79104AH  26169.57035674 -.00000094  00000-0 -34687-3 0  9997
2 40780  19.1987 263.5161 5912341  66.2436 343.5621  3.90301446330866
Epoch: 2026-06-18T13:41Z
TLE epoch observation values (Epoch: 2026-06-18T13:41:18.822Z)
Latitude
0.00004°
Longitude
151.42915°
Altitude
2,569.44 km
Speed
8.106 km/s
True Right ascension
17h 34m 16s
True Declination
0° 00' 00"
Sunlit
Object was in full shadow at epoch
Visualization orbit readout
Latitude
Unknown
Longitude
Unknown
Altitude
Unknown
Speed
Unknown
Apparent Right ascension
Unknown
Apparent Declination
Unknown
Sunlit
N/A
Visualization observer readout
Local Sidereal Time
21:37:18
Azimuth
Unknown
Elevation
Unknown
Doppler factor
Unknown
Orbital elements
Apogee altitude
20,743.004 km
Perigee altitude
588.907 km
Semi-major axis
17,044.092 km
Eccentricity
0.59123
Inclination
19.1987°
RAAN
263.5161°
Arg. of periapsis
66.2436°
True anomaly
293.64757°
Mean anomaly
343.5621°
Eccentric anomaly
323.33312°
Mean motion
0.9754 °/min
Orbital period
369.08 mins
BSTAR
-0.00034687
Loading maneuver chart data...
Computing Atmospheric mass density...
Loading historical data...
Loading historical data...
Loading historical data...
Loading historical data...
Loading historical data...
Loading historical data...
Loading historical data...

Documentation

Showing up to 5 results
|